Location: Espelette
(43.3402°N, 1.4474°W)
Time: 21:12:12
(UTC+00:00)

MOS 1 - Pass Details

Date: 19 May 2025
Orbit: 876 x 890 km, 98.9° (Epoch: 18 June)

Event Time Altitude Azimuth Distance (km) Brightness Sun altitude
Exits shadow 20:09:59 - 152° (SSE) 2,944 6.5 -7.3°
Reaches altitude 10° 20:11:01 10° 150° (SSE) 2,550 6.1 -7.5°
Maximum altitude 20:16:36 62° 71° (ENE) 1,000 4.5 -8.3°
Drops below altitude 10° 20:22:13 10° 353° (N) 2,563 7.4 -9.1°
Sets 20:24:39 0° 350° (N) 3,505 8.3 -9.4°
